Wind_Speed
28 28 29 30 29 27 25 24 23 21 17 14 14 16 19 19 18 17 17 19 20 19 19 20 21 21 18 17 18 18 19 18 17 16 15 15 15 14 12 11 11 12 12 15 18 19 20 20 20 20 20 20 19 17 16 15 14 14 15 15 14 15 17 16 16 16 16 16 15 15 15 14 15 17 17 17 17 18 19 19 20 20 20 21 21 22
28 29 29 27 25 24 24 23 22 21 17 15 14 14 15 17 17 16 16 17 19 19 20 20 22 22 19 17 18 19 21 19 18 17 17 17 16 15 14 11 11 12 13 16 18 20 21 21 21 21 20 19 18 16 16 15 14 15 15 14 14 16 17 16 16 17 17 16 17 17 17 17 17 17 17 17 18 18 19 20 20 20 20 21 22 22
28 28 25 23 24 24 23 22 21 20 18 16 15 14 14 16 16 16 16 16 17 18 18 20 22 22 20 20 19 20 21 19 18 19 18 18 18 16 15 13 13 13 14 16 18 20 22 22 22 21 20 18 16 16 16 15 14 15 15 14 16 17 17 17 18 18 18 18 19 19 18 18 18 17 17 17 18 18 18 19 20 21 21 23 24 24
28 26 25 23 24 24 24 23 22 21 20 19 18 17 16 16 16 15 15 15 15 16 17 19 22 22 21 20 20 19 20 20 19 20 19 19 19 17 17 16 16 15 15 16 19 21 23 24 23 21 19 17 16 17 16 15 15 15 16 16 16 17 18 19 19 20 20 20 21 20 19 19 18 17 17 17 18 18 18 19 20 21 23 25 26 26
26 23 25 26 25 24 24 24 23 22 20 19 18 17 15 14 14 13 13 13 14 15 16 17 19 21 22 20 20 19 19 20 19 19 20 20 19 18 18 18 17 15 15 16 18 21 24 25 23 21 19 17 17 17 17 17 16 16 16 16 16 17 17 19 20 21 22 22 22 21 20 19 18 18 17 17 18 19 20 21 22 24 25 26 27 27
23 20 23 26 25 25 24 24 23 21 19 17 16 15 13 12 12 12 11 10 11 11 13 13 10 12 15 14 14 17 17 18 19 19 21 21 20 19 19 18 18 16 16 16 18 21 24 24 23 22 20 18 18 18 18 18 18 18 18 18 18 18 18 18 19 21 22 23 23 22 20 19 19 19 18 18 19 21 22 23 24 25 26 26 27 28
24 22 21 23 24 23 23 22 21 20 18 16 14 14 13 13 12 12 11 9 7 6 8 9 5 7 12 11 9 12 14 15 16 16 18 19 19 20 19 19 18 18 17 17 19 21 23 23 23 23 21 20 19 19 19 19 19 20 20 20 20 20 20 19 19 20 21 22 22 22 21 20 20 19 19 20 21 22 23 23 24 25 25 26 27 29
25 25 21 20 23 24 23 23 21 20 19 17 15 14 14 13 12 11 10 9 7 6 7 9 9 10 15 15 12 12 12 11 13 14 14 16 18 19 19 19 19 19 19 18 19 21 22 23 23 23 22 21 20 20 20 20 20 21 22 22 22 21 21 20 20 20 20 21 22 22 21 21 20 20 20 21 23 23 23 23 24 24 25 26 27 28
24 26 23 20 22 24 25 23 21 20 20 17 15 14 14 13 12 11 10 9 9 9 10 12 11 9 13 17 15 14 14 12 13 15 14 14 15 17 17 18 19 19 19 19 20 21 22 22 22 22 22 21 21 21 21 22 22 23 24 24 23 22 21 20 20 20 21 21 22 22 22 21 21 21 21 23 23 23 23 23 23 24 25 26 27 28
21 23 23 21 20 21 23 22 20 20 20 18 16 14 13 12 11 10 9 9 9 8 9 11 11 7 9 17 16 13 13 13 15 16 16 15 14 15 16 17 18 19 20 20 21 21 21 22 22 22 22 22 22 22 22 23 24 24 24 24 23 22 21 21 21 22 22 22 22 21 21 21 21 22 22 23 22 22 23 23 23 24 25 26 27 28
19 19 21 22 19 17 17 19 20 20 19 18 16 14 13 10 9 8 8 8 5 5 8 11 13 9 5 10 11 10 10 11 14 15 15 16 15 15 16 17 18 18 19 20 20 21 21 21 21 21 21 21 21 21 20 20 20 20 20 19 18 18 19 19 19 20 20 21 21 21 21 22 22 22 23 22 22 23 23 23 23 24 24 25 26 27
19 17 19 21 20 17 16 18 19 19 21 20 18 17 14 9 7 6 5 6 3 3 6 10 14 13 9 5 3 5 6 7 10 12 13 13 12 13 14 14 15 15 16 17 18 19 20 19 19 19 18 18 18 18 17 17 16 16 15 15 14 14 15 16 17 18 19 19 20 20 21 21 22 22 23 23 23 23 23 23 23 23 23 24 25 26
20 17 17 18 20 19 17 19 21 20 22 22 20 20 14 5 3 4 3 3 4 4 6 9 10 12 15 13 7 7 7 8 10 11 12 11 10 11 11 11 10 11 12 13 14 15 15 15 15 15 15 15 15 15 15 14 14 14 13 13 13 13 14 15 16 17 17 18 18 19 20 21 22 22 22 22 22 23 23 23 23 23 24 24 25 25
18 16 19 20 19 21 21 22 25 24 25 25 23 23 17 6 4 3 3 1 4 6 9 10 7 9 14 14 13 16 14 12 13 15 14 14 13 13 12 12 11 11 11 11 11 11 11 12 12 13 13 13 13 13 13 13 13 12 12 11 12 12 13 13 14 15 16 16 17 18 19 19 20 20 21 21 22 23 24 24 25 25 26 26 26 26
19 14 21 25 21 22 25 25 24 23 25 26 24 24 21 13 5 3 4 3 2 4 9 11 7 5 6 4 6 14 19 19 17 18 19 17 15 15 13 12 11 10 10 9 9 10 10 11 12 12 12 12 12 12 12 12 12 11 11 11 11 12 12 12 13 14 14 15 16 17 18 19 19 20 21 22 24 25 26 27 27 27 28 28 28 29
24 16 19 25 23 21 24 25 22 21 23 25 25 23 22 18 10 4 4 4 4 4 5 10 9 8 8 7 4 5 14 23 22 21 21 19 16 15 13 12 11 10 10 10 11 12 14 15 14 14 13 12 12 12 12 12 12 12 12 12 13 13 13 13 13 14 15 15 16 17 18 19 20 22 24 26 27 29 30 30 30 29 29 30 30 30
24 19 17 22 24 21 21 24 24 23 22 23 26 27 23 19 14 6 5 4 4 1 3 8 11 13 10 9 9 6 6 17 24 23 22 21 18 16 14 14 12 11 11 11 13 14 15 15 14 14 13 12 12 12 13 13 12 12 13 13 14 14 14 14 14 14 15 15 15 16 18 20 22 24 25 27 29 30 31 31 31 31 30 30 31 31
24 19 16 20 24 25 23 25 26 26 25 24 26 29 24 17 14 10 4 3 3 1 4 9 15 17 13 9 11 12 9 13 21 24 23 22 21 19 18 16 14 12 12 14 15 15 15 14 14 13 13 13 14 14 14 14 14 14 14 15 15 15 14 13 14 14 15 16 17 19 22 25 27 28 28 29 30 31 32 32 32 32 31 31 32 32
23 17 13 17 23 25 25 26 27 28 29 26 24 26 21 12 11 13 7 2 2 1 3 7 13 18 20 17 12 13 15 15 17 21 23 23 22 21 20 18 15 15 16 17 17 17 17 15 14 14 14 15 15 15 16 16 17 17 17 17 16 16 15 15 16 17 19 21 23 25 27 30 32 33 32 32 32 32 33 33 34 34 33 33 33 33
26 17 13 17 23 24 25 28 30 31 32 28 21 20 21 13 10 14 12 5 4 3 2 3 5 10 17 18 13 12 16 17 18 20 22 23 23 23 21 20 19 19 19 19 19 19 18 16 16 16 17 17 17 17 18 18 19 19 19 18 18 18 19 20 21 23 25 27 28 29 31 33 36 37 37 36 35 34 34 34 35 35 34 34 34 34
28 21 16 18 22 25 27 30 34 35 34 32 26 23 24 20 14 13 15 13 7 4 3 2 4 7 7 6 9 14 18 19 18 19 21 21 22 22 21 21 21 21 21 21 21 20 19 19 19 19 19 19 19 19 19 19 20 20 20 21 21 22 23 25 26 27 29 30 31 32 34 37 39 39 38 38 37 36 36 35 35 35 35 35 35 35
30 25 21 21 25 29 30 31 34 33 33 34 32 30 30 29 23 12 8 16 17 9 5 4 4 9 7 3 7 13 18 20 19 18 19 18 19 20 20 21 22 23 22 22 22 21 21 22 21 21 21 20 20 20 20 21 21 22 23 24 25 26 27 27 28 29 31 32 34 37 39 41 42 42 40 39 38 38 38 37 37 37 36 36 36 35
35 28 23 22 25 28 27 29 31 32 32 33 32 33 32 31 31 22 12 16 20 14 9 4 4 10 11 7 8 11 14 18 19 17 17 17 18 19 21 23 23 23 24 24 24 24 23 23 23 23 23 22 22 22 22 23 24 25 26 27 28 29 30 30 31 32 34 36 39 42 43 44 43 42 41 40 39 39 38 38 37 37 37 36 36 35
35 28 24 20 19 24 26 27 29 30 32 33 34 36 35 34 36 33 24 16 14 16 14 5 3 12 14 12 14 13 13 15 16 15 16 18 21 22 23 24 24 24 26 25 25 25 24 25 25 24 23 22 23 23 24 26 27 28 29 31 33 34 34 34 35 36 38 41 43 43 42 42 41 40 40 39 38 37 36 37 37 36 36 35 34 34
33 30 27 17 8 10 15 16 20 26 32 36 38 39 39 39 36 33 29 19 13 19 19 10 9 19 18 16 17 15 13 14 14 15 19 21 24 26 27 27 26 25 25 25 25 26 26 27 26 25 24 23 24 26 27 29 31 33 35 37 39 39 39 39 39 40 41 42 41 40 39 38 37 37 37 36 35 35 35 35 35 35 34 33 32 32
33 32 33 24 12 9 12 16 25 34 37 39 40 40 41 41 39 36 30 21 18 22 23 22 22 22 17 15 14 12 12 12 13 16 21 24 25 27 28 26 25 23 22 23 25 27 28 28 27 25 25 26 28 30 31 34 38 39 39 39 40 40 40 41 41 41 40 39 37 35 34 34 34 34 35 35 34 34 34 34 33 33 33 32 32 32
33 34 37 36 33 30 31 33 37 38 38 40 42 42 42 41 40 38 30 26 30 27 24 32 34 26 22 18 13 13 12 10 12 16 21 24 26 26 25 22 20 21 23 25 27 29 29 28 27 27 29 31 33 34 36 39 41 40 39 39 39 40 40 40 40 39 37 35 34 33 33 33 33 34 34 34 35 34 34 34 33 33 32 32 33 33
33 34 36 38 40 40 39 37 34 32 33 37 40 42 43 41 40 39 36 37 39 27 24 38 40 35 34 25 17 17 15 13 15 17 22 25 25 25 22 19 21 24 26 28 29 30 30 28 29 31 34 36 37 39 40 41 41 39 40 40 40 40 40 40 39 37 35 34 34 33 33 33 33 34 34 35 35 35 35 35 35 35 34 34 34 34
32 34 36 37 38 39 39 36 34 31 28 28 31 34 38 40 40 42 42 44 43 35 35 43 39 37 38 30 26 27 20 17 17 20 25 26 24 23 21 21 26 28 29 30 30 30 30 31 34 36 38 40 40 41 41 40 39 38 38 39 39 39 39 38 37 36 35 35 34 34 34 34 34 34 35 35 35 36 36 37 37 37 37 37 37 36
31 32 34 35 35 37 38 37 37 34 28 26 26 26 28 31 34 39 41 43 45 44 44 43 39 41 40 32 29 26 17 15 19 23 26 25 23 24 25 27 30 30 31 32 31 31 33 35 37 39 40 41 40 40 39 37 37 36 37 38 38 37 36 35 35 34 34 34 34 35 35 35 36 36 36 37 37 38 39 39 40 40 41 41 41 41
32 31 31 32 33 34 36 37 37 35 32 30 27 24 24 24 27 32 35 38 43 45 44 44 44 46 43 34 29 23 18 20 24 26 27 27 28 30 30 31 33 32 33 33 34 36 38 38 39 39 40 40 39 38 38 37 37 37 37 37 36 34 33 33 33 33 33 34 34 35 35 36 37 38 39 40 40 41 42 42 43 44 44 44 44 45
33 32 31 31 29 31 34 34 35 36 33 30 30 31 33 34 35 38 37 36 38 38 38 41 45 46 43 35 29 27 26 28 30 31 32 32 33 33 32 33 34 35 36 38 39 40 40 39 39 39 39 38 38 38 38 38 37 35 34 33 32 32 32 31 32 32 32 33 34 34 35 36 38 39 40 41 42 43 44 44 45 46 46 46 47 47
35 34 34 31 26 29 32 31 32 31 23 24 36 42 42 44 45 43 41 38 37 35 34 39 42 43 40 34 30 30 32 34 35 35 35 36 35 34 35 36 38 39 41 41 41 40 38 38 37 37 37 37 37 38 37 36 35 32 31 31 30 31 31 30 31 31 31 32 33 35 36 37 38 39 40 42 43 44 45 45 46 47 47 48 48 49
36 35 35 31 26 24 25 24 22 17 13 25 43 46 43 45 45 43 42 42 40 39 38 40 41 40 39 37 34 31 31 32 33 33 34 36 36 36 38 39 39 40 39 39 39 39 38 38 37 36 36 36 36 36 34 33 31 30 30 30 30 30 30 31 31 31 32 33 34 35 36 37 39 40 41 42 43 44 45 46 47 47 48 49 49 50
36 36 33 30 25 20 17 16 10 8 22 39 44 39 38 39 38 38 39 40 39 39 39 39 39 39 39 38 35 32 31 30 30 30 32 33 34 35 36 36 36 36 36 37 39 39 39 38 37 37 36 36 34 32 30 30 29 28 28 29 29 30 30 31 32 32 33 34 35 36 37 38 39 40 41 42 43 44 45 46 47 48 49 50 50 51
34 36 33 29 26 18 15 17 11 12 28 38 37 37 39 35 32 33 35 37 37 35 36 37 36 37 36 35 35 34 32 30 30 31 32 33 34 35 35 35 36 37 38 39 39 39 39 38 38 37 36 33 31 29 28 27 27 27 28 28 29 30 31 32 33 34 34 35 36 37 38 39 41 42 43 44 45 46 47 48 48 48 49 49 49 49
30 33 33 30 27 22 18 20 20 17 22 30 35 39 40 36 34 33 33 36 35 33 34 36 36 36 36 35 36 35 33 32 33 34 35 35 36 36 36 37 38 38 39 39 39 39 39 38 36 34 32 30 28 26 26 26 27 27 28 29 30 31 32 33 34 35 35 35 36 38 39 41 43 44 45 45 45 46 46 46 46 45 46 46 45 45
31 31 31 28 26 25 20 14 12 10 18 35 42 40 36 31 29 27 27 34 38 36 37 38 37 37 36 34 34 34 33 35 37 37 37 35 35 36 37 38 38 39 39 39 39 38 37 34 32 30 28 27 26 26 26 27 28 28 29 30 31 32 33 33 34 35 36 37 38 39 40 42 42 43 43 43 43 44 44 44 44 45 45 46 47 47
35 35 34 29 24 25 23 15 10 12 24 39 41 37 34 31 29 23 21 33 46 44 41 41 38 36 34 33 33 34 35 38 40 38 35 34 35 36 37 37 38 38 38 37 36 35 32 30 28 26 26 26 27 28 28 28 28 29 29 31 32 33 35 35 37 38 38 39 39 39 40 41 41 42 43 44 44 45 46 47 48 48 49 50 51 52
36 35 36 33 29 30 29 22 19 23 32 38 36 33 32 31 28 18 15 31 48 43 37 37 34 31 30 29 31 34 35 36 35 32 31 32 34 34 34 34 35 34 34 33 31 30 28 27 27 27 27 28 29 30 30 30 30 30 31 33 34 36 37 38 39 39 39 39 40 40 41 42 42 43 44 45 47 48 49 50 51 52 53 54 55 56
36 35 35 37 37 36 33 26 25 32 40 42 39 37 29 20 17 21 25 35 40 32 28 26 22 22 25 25 27 29 30 30 29 28 29 30 30 30 30 30 29 29 28 28 28 28 28 28 28 29 29 30 30 31 31 31 32 32 34 35 37 38 39 39 40 41 41 41 42 42 42 43 43 44 45 47 49 50 50 51 52 53 55 55 56 56
38 35 32 35 37 35 35 32 25 30 44 48 42 36 27 19 24 32 36 35 29 25 25 23 20 21 23 24 25 25 25 27 28 27 28 28 28 28 27 26 26 26 27 28 28 28 29 29 30 30 30 31 31 31 32 33 34 35 36 38 39 40 41 42 43 43 43 43 43 43 44 44 45 46 47 48 50 51 52 52 52 53 54 55 56 56
35 32 29 34 36 31 29 25 16 22 40 44 35 29 27 27 31 35 33 28 26 27 27 26 25 25 24 24 25 24 24 25 25 25 25 25 26 26 27 27 28 28 28 29 29 29 30 30 30 30 30 31 31 33 34 35 37 38 39 41 42 42 43 44 44 44 44 44 45 45 46 46 47 48 49 50 51 53 53 54 54 55 55 56 57 58
30 30 30 36 38 32 28 26 24 29 36 34 28 28 29 29 30 29 27 27 28 28 26 25 24 21 20 21 21 21 23 23 23 24 25 26 27 29 29 30 30 30 30 31 31 31 31 30 29 29 29 31 32 34 36 38 40 41 42 43 43 43 44 44 44 45 46 46 47 48 48 49 50 50 51 52 53 54 55 55 56 56 57 57 57 58
29 32 31 32 34 32 30 32 33 33 32 30 29 30 29 28 28 26 26 27 26 26 25 23 21 19 19 19 20 21 23 24 25 27 28 28 30 30 30 31 31 32 33 32 32 31 30 29 29 29 31 33 35 37 39 41 42 43 44 44 44 44 45 46 47 48 49 49 50 50 51 52 52 52 53 54 55 56 57 57 58 58 58 58 57 57
29 31 30 30 31 30 30 32 31 30 30 31 30 29 28 27 26 25 24 25 25 25 24 22 21 22 21 21 23 24 25 26 28 28 28 29 30 30 30 31 32 32 33 32 32 31 31 31 32 33 35 37 38 40 41 43 44 45 45 45 46 46 47 49 50 50 51 51 52 52 53 53 54 54 54 55 56 56 57 58 58 59 59 59 58 57
29 29 28 28 29 29 30 32 33 33 33 32 31 31 30 28 26 24 23 23 23 24 24 24 25 26 26 26 26 25 25 25 26 26 27 29 29 30 30 31 31 31 32 32 32 33 33 34 35 37 39 40 41 42 43 44 45 46 46 47 48 49 50 51 52 52 53 53 54 54 54 55 55 56 57 57 57 57 57 58 58 59 59 59 58 57
28 28 28 28 28 30 31 32 32 32 32 32 32 31 29 27 26 25 24 24 25 26 27 28 27 26 26 25 24 23 24 24 24 26 26 27 28 29 30 31 32 32 32 33 34 35 36 37 39 41 42 43 44 44 44 45 46 47 48 49 50 51 52 53 53 54 54 55 55 56 57 57 58 58 59 59 59 59 59 59 59 59 59 58 57 57
28 29 30 29 30 32 33 32 31 31 30 29 29 29 29 29 29 29 29 30 31 30 29 27 26 25 24 23 23 23 23 23 24 25 25 26 28 29 30 32 33 34 34 35 36 37 39 41 43 45 46 46 46 46 46 47 48 48 50 51 52 53 54 54 55 55 55 56 57 57 58 59 59 60 61 61 61 61 61 60 60 60 60 58 56 56
31 32 32 30 31 33 34 32 31 31 30 28 28 29 29 29 30 30 31 31 31 29 28 27 26 25 24 24 23 23 23 23 24 24 25 27 28 29 30 32 33 35 36 37 39 41 43 45 47 47 47 47 47 48 48 49 49 50 51 52 53 54 55 55 56 56 57 57 58 59 60 60 61 62 62 63 64 64 64 62 61 60 61 59 57 56
35 35 34 33 34 34 33 31 29 29 29 28 27 27 28 28 28 27 27 27 27 27 27 26 26 25 25 25 24 24 24 24 24 25 26 28 28 30 32 33 34 37 38 40 42 44 45 46 47 47 47 48 49 49 49 50 50 50 51 51 52 53 54 56 57 58 58 59 60 60 61 62 62 63 64 64 64 65 66 65 64 62 61 60 59 58
Wind_Direction
190 192 194 196 197 197 197 199 204 209 207 206 215 223 227 229 232 234 234 237 241 244 247 249 252 251 244 241 246 249 249 248 248 247 243 238 234 232 230 227 228 221 213 219 221 221 223 222 224 227 228 230 232 233 234 235 237 241 243 244 244 245 246 247 249 250 252 255 257 257 257 256 254 255 259 261 263 264 265 267 269 270 270 270 270 272
194 197 199 198 198 199 201 200 202 206 205 204 207 213 221 227 232 235 235 237 241 245 248 251 254 253 249 243 242 247 251 251 251 250 246 242 239 236 233 234 236 229 219 222 226 227 228 226 227 230 230 231 231 232 233 233 234 238 241 243 245 248 249 251 252 252 252 254 255 254 253 254 254 258 264 267 268 268 269 271 274 273 272 273 273 273
198 202 200 198 199 200 203 205 206 207 211 212 211 213 218 221 226 231 232 234 239 245 249 253 256 255 253 249 243 245 251 254 253 251 248 247 244 243 245 244 239 234 226 225 228 232 234 233 232 233 233 233 233 233 235 236 238 242 246 248 249 252 253 253 253 253 252 252 252 253 254 257 261 266 270 272 271 270 270 270 272 273 272 271 269 268
199 201 199 199 202 203 204 207 209 210 213 216 216 218 221 221 223 227 230 233 237 244 250 255 260 258 254 253 249 247 250 253 254 254 254 252 249 246 247 245 240 236 232 229 229 232 236 238 238 238 237 235 236 238 242 245 248 251 253 254 254 255 255 254 254 253 252 251 252 255 258 261 265 269 272 274 274 273 271 267 264 263 262 263 264 263
202 199 199 202 202 204 207 208 210 212 214 219 222 224 226 225 225 227 229 231 235 243 251 259 270 268 260 258 255 251 251 253 253 255 255 254 252 248 245 244 241 236 233 231 231 232 236 240 243 244 243 240 240 244 248 252 256 259 260 261 261 261 261 258 256 254 254 254 255 258 261 264 267 270 271 272 273 271 267 263 261 260 261 264 267 268
206 203 204 205 204 205 208 211 213 213 215 219 223 222 221 220 222 225 223 224 231 242 253 261 275 276 265 260 257 253 250 252 252 251 251 253 253 250 249 248 245 241 236 232 231 234 237 239 242 244 245 244 244 247 252 256 259 261 263 264 265 265 265 264 260 256 256 256 259 260 262 264 266 268 270 270 268 266 264 263 264 266 269 272 273 273
205 206 207 207 208 209 210 213 215 215 215 216 218 216 212 210 211 214 216 216 221 232 251 254 247 267 268 255 246 247 242 242 245 244 244 247 249 249 248 249 247 245 241 235 232 234 237 239 241 242 243 243 246 249 253 257 260 262 263 263 264 264 264 264 261 258 257 259 261 262 262 263 265 267 267 266 263 262 263 265 268 272 274 276 276 276
204 206 206 205 207 210 212 212 213 214 213 212 212 208 207 208 206 207 212 217 228 238 250 258 257 271 273 258 244 245 237 231 239 240 236 237 241 244 245 244 244 242 239 235 232 233 235 238 240 241 243 244 246 250 254 258 261 263 264 264 263 263 262 261 260 259 259 261 262 261 261 263 264 265 263 262 261 261 263 266 271 275 278 279 280 280
204 206 206 205 206 210 212 212 211 209 208 209 207 202 202 208 212 216 224 232 245 254 255 258 256 261 270 263 257 256 245 233 239 243 241 239 239 240 242 241 240 238 236 233 231 231 233 235 238 241 243 245 247 250 254 257 260 261 262 262 262 260 257 254 253 254 256 258 259 259 259 261 262 262 260 260 262 264 267 271 275 279 281 282 283 284
206 207 207 207 210 213 212 210 210 208 207 208 206 202 201 205 213 219 230 236 243 251 247 249 246 241 270 270 265 266 258 243 240 244 245 246 245 243 242 241 238 234 232 231 229 229 231 233 237 240 243 246 249 252 254 255 257 258 259 259 259 257 253 251 250 252 255 256 255 256 257 259 260 261 261 263 266 269 272 276 278 280 281 282 284 285
209 208 208 208 209 213 211 208 206 205 206 206 204 200 192 193 203 208 219 224 236 255 236 233 236 232 267 282 270 263 259 247 242 242 243 244 242 239 237 236 235 232 230 229 228 228 230 233 236 239 243 246 248 249 250 250 250 251 254 255 257 256 255 254 253 255 257 256 256 256 258 260 261 263 266 268 271 273 275 277 278 279 281 282 284 285
208 207 208 209 209 205 202 203 203 203 204 203 202 198 186 175 182 197 211 203 205 252 216 215 226 225 224 244 247 225 226 238 240 233 231 232 229 224 223 224 225 225 224 225 226 226 228 230 232 234 236 238 240 241 242 242 242 243 245 247 248 250 251 252 254 255 256 256 257 259 261 263 265 267 270 272 274 275 276 278 280 282 285 286 287 287
208 211 210 209 211 206 198 196 195 198 202 202 201 194 181 143 144 206 228 203 223 229 198 204 215 225 235 237 222 219 238 247 233 217 209 207 200 194 191 192 193 195 203 209 213 215 216 218 219 221 225 228 232 236 239 242 243 243 243 243 244 245 246 249 252 254 257 259 262 264 266 267 269 271 273 274 276 278 280 283 286 289 291 291 291 290
199 212 214 210 210 208 203 198 195 195 197 200 201 194 184 145 99 225 255 300 261 227 200 204 213 240 253 249 234 231 238 235 214 198 189 183 179 172 166 168 170 171 178 185 191 196 200 205 210 215 222 228 233 238 242 244 246 247 247 248 249 250 250 251 254 256 259 262 264 266 267 268 270 273 275 278 281 283 286 289 291 293 294 294 293 290
194 205 212 209 208 207 205 205 207 206 199 198 203 204 201 192 166 197 214 205 204 177 186 195 205 236 228 197 214 226 224 217 201 190 186 178 176 176 172 172 176 180 188 197 204 210 215 219 224 228 233 238 242 245 246 247 248 249 250 252 254 255 255 256 257 258 260 262 264 266 268 270 273 276 278 282 283 285 287 288 290 292 292 292 291 288
202 209 212 208 208 209 205 205 207 206 198 194 199 205 210 212 205 165 153 165 135 112 175 199 215 229 197 168 176 221 218 210 200 192 188 182 181 184 185 190 199 209 220 229 234 236 238 237 238 240 242 246 248 249 248 248 248 249 250 251 252 252 254 255 257 259 261 265 269 273 277 280 283 285 285 285 285 285 285 287 288 290 290 289 287 286
202 209 215 208 206 207 204 204 203 201 200 198 199 204 209 213 212 178 122 122 126 131 226 214 231 242 232 216 211 203 206 203 201 200 196 192 191 195 204 212 218 227 237 243 244 240 238 237 237 239 242 246 248 248 249 248 248 249 249 250 251 251 252 254 255 259 265 272 279 284 289 294 296 298 296 292 290 288 287 287 288 289 289 288 286 285
203 202 207 205 202 203 201 201 203 204 206 204 204 209 210 209 213 202 158 85 89 267 245 228 239 242 235 226 211 208 210 200 199 203 205 203 199 202 212 219 227 238 247 248 242 235 231 230 233 236 240 243 244 245 247 249 250 251 251 252 254 256 258 260 263 267 275 282 288 293 296 300 303 304 302 298 295 293 292 291 290 290 289 287 286 286
209 199 197 200 200 201 199 198 200 203 208 211 212 213 207 200 205 196 180 112 150 224 273 240 240 242 237 233 220 210 212 209 204 204 207 210 210 211 218 225 234 243 245 241 234 229 228 229 232 237 241 242 242 246 249 253 255 254 254 255 257 262 266 270 274 278 283 287 290 292 295 298 301 303 302 299 296 293 292 292 291 290 289 287 286 287
215 204 193 196 197 198 198 200 202 204 206 209 213 212 205 204 204 197 198 200 175 186 254 259 248 248 246 243 233 214 209 211 214 213 211 214 218 222 227 233 239 240 238 234 228 227 227 231 238 243 244 244 245 250 254 257 259 259 260 263 266 270 275 278 281 285 287 289 290 292 294 296 299 300 299 297 294 291 288 287 287 288 288 287 287 287
216 211 202 193 191 195 199 204 209 210 208 206 206 203 202 204 200 199 214 218 205 185 179 196 266 251 248 250 223 206 204 208 214 217 217 216 219 224 228 232 235 234 232 229 227 230 234 239 242 243 243 246 249 253 257 259 261 264 267 270 273 276 280 283 285 287 288 289 291 293 295 298 300 300 297 294 292 289 286 284 284 285 285 285 285 285
215 213 208 194 191 198 204 208 212 213 214 216 217 214 212 210 204 193 212 219 216 217 192 176 266 259 247 234 201 197 201 206 209 212 216 216 217 221 224 226 228 229 228 229 232 237 240 241 241 242 244 249 253 256 260 263 267 271 273 276 278 280 283 285 286 288 289 290 292 293 295 296 298 297 295 292 290 288 286 285 284 284 283 283 283 282
215 212 207 201 202 205 207 210 213 212 215 219 223 225 223 220 216 210 213 217 210 212 218 208 278 267 249 222 192 179 182 193 198 203 210 216 219 222 225 225 226 228 228 230 235 238 240 241 242 245 248 252 257 262 266 269 272 275 277 279 281 283 284 285 285 286 287 289 290 291 291 291 292 292 290 288 285 284 283 283 283 283 283 284 283 280
214 212 204 197 201 207 208 213 216 215 216 217 221 226 224 225 226 223 227 229 210 212 219 198 269 254 237 214 203 192 183 188 196 206 215 223 228 228 227 225 225 227 229 231 236 239 241 244 245 247 252 258 264 270 273 275 277 280 282 284 286 288 288 289 288 288 288 289 289 289 289 288 287 286 284 282 281 280 280 281 283 284 286 286 285 281
212 208 201 183 161 201 210 217 220 218 219 220 223 225 224 227 227 224 227 229 223 228 221 198 237 248 233 221 221 216 211 206 201 205 213 220 226 226 223 223 224 227 230 234 239 243 244 244 244 247 255 264 272 278 280 283 286 289 290 290 290 291 291 291 291 291 291 291 291 289 287 285 284 282 281 281 281 282 283 284 286 287 288 288 286 283
213 208 204 192 172 183 200 213 222 220 218 220 224 224 225 226 224 223 224 220 228 236 223 214 235 246 236 228 225 208 201 205 201 205 211 214 218 221 219 220 223 228 237 244 247 248 246 244 245 251 262 271 279 285 288 289 292 292 291 291 291 291 292 293 294 294 294 293 291 289 287 285 285 285 285 285 286 287 288 289 290 291 290 289 286 283
216 215 215 211 210 216 218 220 224 224 219 219 223 224 224 225 225 224 220 220 230 233 227 231 239 245 244 237 221 198 193 212 222 218 216 213 213 214 214 217 228 239 248 253 253 250 247 247 252 260 270 277 282 288 290 290 291 291 291 292 293 293 295 295 296 296 295 293 292 291 290 289 289 288 289 290 290 291 291 291 291 291 290 288 286 284
215 217 221 222 224 229 229 227 228 230 228 227 229 228 226 225 224 222 220 228 232 227 236 244 242 243 246 240 230 227 227 241 242 222 211 207 205 207 212 228 248 252 250 249 249 248 248 253 262 268 274 281 286 288 288 287 288 289 290 292 292 293 294 294 294 294 293 293 292 293 293 292 292 292 292 292 292 292 291 291 291 290 289 288 286 285
215 220 223 225 228 231 232 232 234 236 236 236 236 235 234 230 227 226 229 234 233 229 242 250 246 246 249 245 246 252 253 254 243 215 205 204 204 213 227 247 256 251 245 242 242 245 252 262 269 274 278 283 286 286 285 286 287 287 288 289 289 290 290 289 289 288 289 289 290 291 292 292 292 292 292 292 292 292 291 291 291 290 290 289 288 287
215 222 226 227 230 232 232 234 237 239 239 239 238 239 239 238 236 237 240 241 240 240 247 251 252 256 256 253 256 259 252 238 222 207 206 209 215 230 247 256 252 243 240 240 244 252 262 270 274 277 280 282 283 283 283 284 284 285 287 287 287 286 285 283 283 282 283 285 286 288 289 290 291 291 291 291 291 291 291 291 291 290 290 290 289 289
215 221 225 227 231 233 233 234 237 239 240 241 241 240 240 240 240 241 243 242 241 243 246 247 253 258 257 253 254 253 235 223 221 219 223 226 233 244 252 253 246 240 241 247 255 263 270 274 275 276 278 279 279 280 280 281 283 284 285 284 283 281 280 280 280 281 282 283 284 284 285 286 287 288 288 289 289 289 289 289 290 290 290 290 290 291
217 219 222 224 227 232 234 234 236 238 240 241 240 240 239 239 240 240 241 240 239 243 246 246 249 255 256 253 253 250 241 236 236 236 235 237 243 248 249 247 244 245 250 258 264 268 272 273 274 276 276 276 276 277 279 282 284 284 283 281 280 279 279 280 281 282 283 284 284 284 285 285 285 285 286 286 286 287 287 287 288 288 288 289 290 291
217 220 222 220 221 230 233 233 234 235 236 236 238 239 240 241 243 244 244 245 245 246 247 247 250 257 262 261 256 251 248 246 247 246 244 246 248 248 247 247 249 253 258 263 267 270 272 274 275 275 275 275 276 279 282 284 284 283 281 280 279 279 280 282 283 285 286 286 286 286 286 285 285 284 284 285 285 285 285 286 287 287 288 288 289 290
218 220 222 220 218 227 231 228 226 222 222 238 241 242 243 244 245 247 247 250 251 251 251 254 257 261 263 263 260 256 253 253 254 255 254 252 252 251 251 252 254 258 262 266 269 273 275 276 277 277 277 279 281 282 283 283 282 281 279 278 278 278 281 283 285 287 288 289 288 288 287 286 285 284 284 284 284 284 285 286 287 288 289 289 290 291
221 219 219 219 218 224 220 206 195 213 235 242 246 246 246 248 249 251 253 254 255 254 255 257 258 259 262 264 265 263 258 255 255 256 256 257 257 257 257 258 261 264 267 270 273 275 278 279 280 282 283 284 284 283 282 281 280 279 278 278 279 281 283 286 287 288 289 289 288 287 286 285 284 283 283 283 284 285 286 287 288 289 289 289 290 291
221 220 218 215 213 213 199 186 193 241 244 244 249 249 246 245 243 244 248 249 249 251 255 256 257 258 261 263 264 264 262 260 257 256 256 258 259 261 262 264 266 269 271 273 276 278 280 281 282 284 285 284 283 281 280 279 280 281 282 284 285 286 287 288 288 289 289 288 287 286 285 284 284 283 284 284 285 286 287 288 289 289 289 289 289 290
218 220 220 215 212 213 204 202 219 243 250 248 248 247 247 246 244 245 251 253 251 253 256 258 260 260 260 261 263 264 264 263 261 258 256 256 258 261 263 265 267 270 273 275 278 279 280 281 282 282 282 281 280 280 280 282 284 285 287 288 288 289 290 290 290 290 289 288 288 287 287 287 287 288 289 289 290 291 291 292 293 293 293 293 293 293
219 220 220 216 216 218 215 214 221 232 248 248 246 247 251 252 251 254 261 261 256 255 258 261 262 261 260 260 261 262 263 262 259 258 258 259 260 262 264 266 269 271 273 275 277 278 279 279 279 279 279 280 281 282 283 285 287 287 289 289 290 290 290 290 290 290 290 290 291 291 292 293 293 294 294 295 295 295 295 295 295 295 295 295 294 294
220 221 221 218 217 217 216 218 218 226 244 249 251 253 253 255 259 259 259 262 260 260 263 263 261 259 257 257 257 257 256 257 258 261 263 264 264 265 266 267 269 270 272 274 275 276 276 277 277 277 278 280 283 284 285 286 287 287 288 289 289 290 290 291 292 293 294 295 295 296 296 296 296 296 296 296 296 297 297 297 297 297 296 296 296 296
215 218 217 215 217 219 219 223 232 240 247 253 258 260 259 264 264 245 234 260 264 264 265 263 259 257 257 255 254 253 254 258 262 266 266 264 264 265 265 266 267 268 269 270 271 273 274 275 276 278 279 281 283 285 286 287 288 288 289 290 291 292 293 294 295 296 297 297 297 297 297 297 297 297 298 298 298 298 299 299 299 299 299 299 299 299
213 216 216 216 219 221 221 225 235 243 248 252 256 259 261 261 241 218 231 257 264 267 270 266 258 255 253 252 253 255 259 262 263 263 262 261 263 263 263 264 264 265 266 269 271 273 274 275 276 278 280 282 284 285 286 287 288 289 291 292 292 293 294 295 295 296 296 296 297 297 298 298 299 300 300 301 301 301 301 302 302 302 301 301 301 301
214 216 217 218 219 220 222 226 232 244 249 251 252 252 245 224 219 233 249 259 262 267 272 271 267 262 258 257 259 259 258 257 257 257 258 258 259 260 261 263 264 266 268 270 270 271 272 274 277 279 281 283 284 285 286 287 288 289 290 291 291 292 293 294 294 294 294 295 296 297 299 300 301 302 302 302 303 303 303 304 305 305 305 305 304 304
220 216 213 218 221 220 221 221 220 237 245 245 240 235 229 225 235 250 260 263 265 269 271 271 271 268 265 263 262 258 254 252 251 252 253 255 258 261 264 267 269 270 269 268 268 270 272 274 276 278 280 281 282 284 284 285 286 287 288 289 290 292 292 293 294 294 295 297 298 299 300 301 302 303 304 304 305 305 306 307 307 308 308 307 307 306
224 218 215 222 225 219 214 218 225 235 242 245 242 239 241 247 255 261 265 266 268 269 268 268 268 264 261 257 251 247 246 246 247 251 255 260 264 266 268 269 268 268 267 268 270 271 273 274 275 276 278 279 281 282 282 283 284 286 288 289 291 292 293 294 295 296 297 299 299 300 301 302 304 305 306 306 307 307 308 308 308 308 308 308 308 307
225 226 226 229 232 229 227 234 242 247 251 256 258 258 260 263 265 264 263 263 264 263 263 264 261 254 249 243 238 240 246 251 256 260 262 263 264 264 265 264 265 266 268 270 271 272 273 273 273 275 277 279 280 282 283 285 287 288 290 292 293 294 295 295 297 298 299 300 300 301 302 303 304 305 306 307 308 308 308 309 309 309 309 308 308 307
230 234 235 236 239 241 242 245 250 253 255 256 259 262 264 265 265 264 261 258 257 257 256 255 254 253 250 248 249 252 255 257 259 259 260 260 261 260 261 261 263 265 268 269 271 271 271 272 273 276 278 281 284 286 288 290 291 292 293 294 295 296 296 297 298 299 300 301 301 302 303 304 304 305 306 307 307 307 308 308 308 308 308 308 307 306
235 237 238 237 238 240 243 246 248 251 253 255 257 259 261 261 260 258 254 250 249 252 254 255 257 259 258 258 258 256 254 253 253 253 255 256 258 259 261 263 264 264 265 266 267 268 270 273 275 278 281 285 288 290 292 293 294 294 295 296 297 297 298 299 300 300 301 301 302 303 303 304 304 305 305 305 305 306 306 307 307 307 307 307 306 304
238 239 238 235 235 238 243 248 250 251 252 253 253 255 256 257 256 254 252 251 253 256 259 260 260 259 258 257 257 255 254 254 253 253 253 253 255 257 260 262 263 264 264 265 267 269 272 274 278 281 284 287 289 291 293 294 295 296 297 297 298 299 299 300 300 301 301 302 302 303 303 303 304 304 304 304 304 305 305 305 305 305 304 304 303 301
239 239 238 238 237 238 241 245 248 249 250 251 252 255 255 255 255 254 255 258 260 262 262 262 261 260 259 259 259 259 257 255 253 254 253 253 254 255 257 259 261 262 264 265 267 270 273 276 280 283 286 288 290 292 294 296 297 298 298 298 299 299 299 300 300 301 301 302 302 302 303 303 303 303 304 304 304 304 304 304 304 303 303 302 301 299
237 239 240 239 238 239 243 247 249 251 254 256 258 260 259 257 256 256 257 259 261 262 262 262 262 263 263 264 263 262 260 258 256 255 254 254 255 256 257 258 259 260 262 265 268 271 275 278 281 283 285 288 291 293 295 296 297 298 299 299 299 299 299 300 300 300 301 301 301 302 302 303 303 303 304 304 304 303 303 302 302 302 301 301 300 298
238 240 241 242 243 246 251 254 256 257 260 261 261 260 258 257 256 256 255 256 257 259 261 263 264 265 266 266 266 265 264 262 259 257 256 255 255 256 257 258 259 262 265 269 272 275 278 280 283 286 288 291 293 295 296 297 298 298 298 299 299 299 299 300 300 300 301 302 302 302 303 303 303 303 303 303 303 303 302 302 301 300 300 300 299 297
Height
3139 3140 3141 3143 3146 3149 3152 3154 3156 3158 3160 3162 3164 3165 3167 3168 3169 3170 3171 3172 3172 3173 3173 3173 3173 3174 3176 3177 3178 3178 3178 3179 3181 3182 3183 3184 3185 3186 3187 3187 3188 3189 3190 3190 3190 3191 3191 3192 3193 3193 3193 3194 3194 3195 3196 3197 3198 3198 3198 3199 3200 3200 3199 3200 3200 3201 3201 3201 3201 3202 3202 3202 3202 3201 3201 3201 3201 3201 3201 3200 3200 3200 3200 3200 3200 3199
3137 3138 3140 3144 3147 3150 3152 3153 3155 3157 3159 3161 3163 3164 3166 3167 3167 3168 3169 3170 3171 3171 3171 3172 3171 3172 3174 3175 3176 3176 3176 3177 3179 3180 3181 3182 3183 3184 3185 3186 3186 3187 3188 3188 3188 3189 3189 3190 3190 3191 3191 3192 3193 3194 3194 3195 3195 3196 3196 3197 3198 3197 3197 3198 3198 3198 3199 3199 3199 3199 3199 3199 3199 3199 3199 3199 3199 3199 3198 3198 3198 3198 3198 3198 3198 3197
3136 3138 3141 3144 3147 3149 3151 3152 3154 3156 3158 3160 3162 3163 3164 3165 3166 3167 3168 3168 3169 3170 3170 3170 3169 3170 3172 3172 3174 3174 3174 3175 3176 3177 3178 3180 3181 3182 3183 3184 3184 3185 3186 3186 3187 3187 3187 3188 3188 3188 3189 3190 3191 3191 3192 3193 3193 3194 3194 3195 3195 3195 3195 3196 3196 3196 3196 3196 3196 3196 3197 3197 3197 3197 3197 3197 3197 3197 3197 3197 3196 3196 3196 3195 3194 3194
3134 3137 3141 3143 3145 3147 3149 3151 3153 3154 3156 3158 3160 3161 3162 3164 3164 3165 3166 3167 3168 3169 3169 3169 3168 3168 3169 3170 3171 3172 3172 3173 3174 3175 3176 3177 3178 3179 3180 3181 3181 3182 3183 3184 3184 3184 3184 3185 3185 3186 3187 3188 3189 3190 3190 3191 3191 3192 3192 3193 3193 3193 3193 3193 3193 3194 3194 3194 3194 3194 3195 3195 3195 3195 3195 3195 3195 3195 3195 3194 3194 3193 3193 3192 3191 3191
3134 3137 3139 3141 3143 3145 3147 3149 3150 3152 3155 3156 3158 3160 3161 3163 3164 3164 3165 3166 3167 3167 3167 3168 3167 3166 3167 3168 3169 3170 3171 3171 3172 3173 3173 3174 3175 3176 3177 3178 3179 3180 3181 3181 3182 3182 3182 3182 3183 3184 3186 3187 3187 3188 3188 3189 3189 3189 3190 3190 3190 3191 3191 3191 3191 3192 3192 3192 3192 3192 3193 3193 3193 3193 3193 3193 3193 3192 3191 3191 3190 3190 3189 3188 3188 3188
3135 3136 3137 3139 3141 3143 3145 3147 3149 3151 3153 3155 3156 3158 3160 3161 3162 3163 3164 3165 3166 3166 3167 3168 3168 3165 3164 3166 3167 3168 3169 3169 3169 3170 3170 3171 3173 3174 3174 3175 3176 3177 3178 3179 3179 3179 3179 3180 3181 3183 3184 3184 3185 3185 3186 3186 3187 3187 3187 3187 3188 3188 3189 3189 3189 3189 3189 3190 3190 3190 3191 3191 3191 3191 3191 3191 3190 3189 3188 3188 3187 3187 3187 3186 3186 3185
3133 3135 3136 3138 3140 3142 3144 3146 3148 3150 3152 3153 3155 3156 3158 3160 3161 3162 3163 3164 3165 3165 3166 3167 3167 3165 3163 3164 3165 3166 3166 3167 3167 3167 3168 3169 3170 3171 3172 3172 3173 3174 3175 3176 3176 3177 3177 3178 3179 3180 3181 3182 3183 3183 3184 3184 3184 3184 3184 3185 3185 3186 3186 3187 3187 3187 3187 3188 3188 3188 3188 3189 3189 3189 3189 3188 3187 3186 3185 3185 3185 3185 3185 3184 3183 3182
3131 3132 3134 3136 3139 3140 3142 3144 3147 3149 3151 3152 3153 3155 3157 3158 3160 3161 3162 3163 3164 3164 3165 3165 3166 3165 3162 3162 3163 3164 3165 3166 3165 3165 3166 3167 3168 3168 3169 3170 3171 3171 3172 3173 3174 3174 3175 3176 3176 3177 3178 3179 3180 3181 3181 3181 3181 3181 3181 3182 3182 3183 3184 3184 3185 3185 3185 3185 3186 3186 3186 3186 3186 3186 3186 3185 3184 3183 3183 3183 3183 3183 3182 3181 3180 3179
3129 3131 3133 3135 3137 3138 3140 3143 3145 3147 3149 3150 3152 3154 3156 3157 3159 3160 3161 3162 3163 3163 3164 3164 3165 3164 3161 3159 3161 3162 3163 3164 3163 3163 3165 3165 3166 3166 3167 3168 3168 3169 3169 3170 3171 3172 3172 3173 3174 3175 3176 3176 3177 3178 3178 3178 3178 3178 3178 3179 3179 3180 3180 3181 3182 3182 3182 3183 3183 3183 3183 3184 3183 3183 3183 3182 3182 3182 3182 3182 3182 3181 3180 3179 3177 3176
3128 3130 3132 3134 3135 3137 3139 3142 3144 3146 3147 3149 3151 3153 3155 3157 3158 3159 3160 3160 3161 3162 3162 3162 3163 3162 3159 3157 3158 3159 3160 3162 3161 3162 3163 3164 3164 3165 3165 3165 3166 3166 3167 3168 3168 3169 3170 3170 3171 3172 3173 3174 3174 3174 3175 3175 3175 3175 3175 3176 3176 3177 3178 3178 3179 3179 3179 3180 3180 3180 3180 3180 3180 3180 3180 3180 3180 3180 3180 3180 3180 3178 3178 3176 3175 3174
3128 3129 3131 3132 3134 3136 3138 3140 3142 3144 3147 3148 3150 3152 3155 3156 3157 3158 3158 3159 3161 3160 3159 3160 3161 3161 3159 3155 3156 3157 3158 3159 3159 3160 3161 3161 3162 3163 3163 3163 3163 3164 3164 3165 3166 3166 3167 3168 3169 3169 3170 3171 3171 3171 3172 3172 3172 3173 3173 3174 3174 3175 3175 3176 3176 3177 3177 3177 3177 3177 3177 3178 3178 3177 3178 3178 3178 3178 3177 3177 3177 3176 3175 3174 3173 3172
3126 3128 3129 3130 3132 3134 3137 3139 3141 3143 3145 3147 3149 3151 3153 3156 3157 3158 3158 3158 3159 3158 3157 3158 3158 3159 3158 3154 3154 3155 3156 3157 3157 3158 3159 3159 3160 3160 3161 3161 3161 3161 3162 3162 3163 3164 3165 3165 3166 3167 3168 3168 3169 3169 3169 3170 3170 3170 3171 3171 3172 3173 3173 3174 3174 3174 3175 3175 3175 3175 3175 3175 3175 3175 3176 3176 3176 3175 3174 3174 3173 3173 3172 3171 3170 3169
3125 3126 3128 3129 3131 3133 3135 3137 3139 3141 3143 3145 3147 3149 3152 3155 3157 3157 3157 3158 3157 3156 3156 3156 3157 3156 3153 3152 3153 3154 3155 3155 3156 3156 3157 3158 3158 3159 3159 3159 3159 3160 3160 3161 3162 3162 3163 3164 3164 3165 3166 3166 3167 3167 3168 3168 3168 3169 3169 3170 3170 3171 3171 3172 3172 3172 3173 3173 3173 3173 3173 3174 3174 3174 3173 3173 3173 3172 3171 3171 3170 3170 3169 3168 3167 3166
3123 3125 3126 3127 3129 3131 3132 3134 3135 3137 3140 3142 3144 3146 3148 3152 3155 3156 3158 3158 3155 3153 3154 3155 3156 3153 3149 3149 3151 3152 3153 3153 3154 3155 3156 3157 3158 3158 3158 3159 3158 3159 3159 3160 3161 3161 3162 3162 3163 3164 3164 3165 3165 3166 3166 3167 3167 3168 3168 3169 3169 3170 3170 3171 3171 3171 3171 3172 3172 3172 3172 3172 3172 3171 3171 3171 3170 3169 3168 3168 3167 3166 3165 3164 3164 3163
3119 3121 3122 3124 3126 3128 3130 3131 3133 3135 3138 3141 3143 3145 3145 3146 3148 3150 3152 3152 3150 3151 3152 3154 3153 3149 3146 3146 3147 3148 3150 3151 3152 3154 3155 3156 3157 3158 3158 3158 3158 3158 3159 3160 3160 3161 3161 3162 3162 3162 3163 3164 3164 3165 3166 3166 3167 3167 3168 3168 3169 3169 3169 3170 3170 3170 3170 3170 3170 3170 3170 3170 3169 3169 3168 3168 3167 3166 3165 3164 3164 3163 3162 3161 3160 3159
3117 3118 3119 3121 3124 3126 3128 3131 3133 3136 3138 3139 3141 3143 3144 3144 3144 3146 3148 3148 3149 3151 3151 3151 3148 3144 3144 3145 3145 3146 3147 3148 3151 3152 3154 3155 3156 3157 3157 3157 3157 3158 3158 3159 3159 3160 3160 3161 3161 3161 3162 3163 3163 3164 3165 3165 3166 3166 3167 3167 3167 3168 3168 3168 3168 3169 3168 3168 3168 3168 3168 3167 3167 3166 3166 3165 3164 3163 3162 3161 3160 3159 3158 3157 3156 3155
3114 3116 3117 3120 3122 3125 3127 3129 3132 3134 3135 3137 3139 3139 3141 3142 3143 3145 3147 3148 3150 3150 3148 3147 3145 3143 3144 3144 3144 3145 3145 3146 3149 3150 3152 3154 3154 3155 3155 3155 3156 3156 3157 3158 3158 3159 3159 3159 3160 3160 3161 3161 3162 3163 3163 3164 3164 3165 3165 3165 3165 3166 3166 3166 3166 3166 3166 3166 3165 3165 3165 3164 3164 3163 3162 3161 3160 3159 3158 3158 3156 3155 3154 3153 3152 3151
3111 3114 3116 3118 3120 3122 3125 3127 3130 3131 3133 3134 3135 3136 3139 3142 3143 3144 3146 3149 3151 3150 3146 3143 3142 3141 3142 3142 3142 3143 3144 3145 3147 3149 3150 3151 3152 3153 3153 3153 3154 3155 3156 3156 3157 3157 3158 3158 3158 3159 3159 3160 3160 3161 3161 3162 3162 3163 3163 3163 3163 3163 3163 3164 3164 3164 3163 3163 3163 3162 3161 3160 3159 3159 3158 3157 3156 3155 3154 3153 3152 3151 3150 3149 3148 3147
3109 3112 3115 3117 3119 3121 3123 3125 3127 3129 3130 3131 3132 3135 3138 3140 3141 3141 3144 3146 3148 3149 3146 3141 3139 3138 3137 3138 3140 3142 3143 3144 3145 3147 3148 3149 3150 3150 3151 3152 3153 3154 3154 3154 3155 3156 3156 3156 3157 3157 3158 3158 3158 3159 3159 3160 3160 3161 3161 3161 3161 3161 3161 3161 3161 3161 3160 3160 3160 3159 3158 3157 3156 3155 3154 3153 3152 3151 3150 3148 3147 3146 3145 3144 3143 3142
3108 3110 3113 3115 3117 3120 3121 3122 3123 3124 3126 3129 3132 3134 3136 3137 3138 3139 3141 3140 3141 3145 3144 3140 3137 3134 3132 3135 3138 3140 3141 3142 3143 3145 3146 3147 3148 3148 3149 3150 3151 3151 3152 3152 3153 3154 3154 3155 3155 3156 3156 3156 3157 3157 3157 3157 3158 3158 3158 3158 3158 3158 3158 3158 3158 3158 3157 3157 3156 3155 3154 3153 3152 3151 3150 3148 3147 3146 3145 3144 3143 3142 3141 3140 3139 3138
3106 3108 3110 3113 3115 3117 3118 3118 3118 3119 3122 3125 3128 3130 3133 3134 3136 3137 3138 3138 3138 3141 3142 3139 3134 3130 3130 3133 3135 3136 3138 3139 3140 3142 3143 3145 3145 3146 3147 3148 3149 3149 3149 3150 3151 3152 3153 3153 3153 3153 3154 3154 3154 3155 3155 3155 3155 3155 3155 3156 3156 3156 3155 3155 3155 3154 3154 3153 3152 3151 3150 3149 3148 3147 3146 3144 3143 3141 3140 3139 3138 3137 3136 3135 3134 3133
3103 3105 3107 3110 3111 3113 3113 3114 3116 3119 3121 3122 3124 3126 3127 3129 3132 3134 3135 3135 3135 3136 3137 3137 3132 3127 3129 3131 3132 3133 3135 3137 3138 3139 3141 3142 3143 3144 3145 3146 3146 3147 3148 3148 3149 3150 3150 3150 3151 3151 3151 3152 3152 3152 3152 3153 3153 3153 3152 3153 3152 3152 3152 3152 3151 3151 3150 3149 3148 3147 3146 3145 3144 3143 3141 3140 3138 3137 3136 3135 3134 3133 3132 3131 3130 3129
3100 3103 3105 3107 3109 3110 3112 3113 3115 3117 3120 3122 3123 3124 3126 3127 3127 3129 3129 3128 3131 3133 3133 3135 3132 3126 3127 3130 3131 3132 3134 3135 3137 3138 3139 3140 3141 3142 3143 3143 3144 3145 3146 3146 3147 3147 3148 3148 3149 3149 3149 3150 3150 3150 3150 3150 3150 3150 3150 3150 3149 3149 3149 3148 3148 3147 3147 3146 3145 3144 3143 3141 3140 3139 3137 3136 3134 3133 3131 3130 3129 3128 3127 3126 3125 3124
3098 3100 3102 3105 3107 3109 3110 3111 3113 3116 3117 3119 3119 3120 3122 3123 3123 3124 3125 3126 3129 3130 3131 3134 3132 3125 3125 3128 3129 3131 3133 3135 3136 3137 3138 3139 3140 3141 3141 3141 3142 3143 3143 3144 3144 3145 3145 3146 3146 3146 3146 3147 3147 3147 3147 3147 3147 3147 3146 3146 3145 3145 3144 3144 3143 3143 3143 3142 3141 3140 3139 3137 3136 3134 3132 3131 3129 3128 3127 3126 3125 3124 3123 3122 3121 3120
3094 3096 3098 3102 3106 3109 3111 3112 3112 3113 3113 3113 3113 3115 3117 3118 3120 3123 3124 3126 3127 3125 3127 3131 3126 3121 3123 3126 3127 3129 3131 3133 3135 3136 3137 3137 3137 3137 3138 3138 3140 3140 3141 3141 3142 3143 3143 3143 3143 3143 3143 3143 3143 3144 3143 3143 3143 3142 3142 3141 3141 3140 3139 3139 3138 3138 3137 3137 3135 3134 3133 3132 3130 3129 3127 3126 3125 3124 3123 3122 3121 3120 3119 3118 3117 3116
3090 3090 3091 3094 3098 3101 3103 3103 3102 3103 3105 3106 3107 3110 3112 3114 3117 3119 3122 3124 3123 3121 3123 3123 3119 3118 3122 3123 3124 3127 3129 3130 3132 3133 3133 3134 3134 3135 3135 3136 3137 3138 3139 3140 3140 3140 3140 3140 3140 3141 3141 3140 3140 3140 3139 3138 3138 3138 3137 3137 3136 3136 3135 3134 3133 3132 3131 3131 3130 3129 3128 3127 3125 3124 3123 3122 3121 3120 3119 3118 3117 3116 3115 3114 3113 3112
3087 3087 3087 3088 3088 3089 3091 3092 3093 3095 3099 3100 3102 3104 3107 3110 3113 3116 3119 3119 3117 3117 3118 3116 3116 3118 3119 3121 3122 3124 3126 3128 3129 3130 3131 3131 3132 3132 3133 3134 3135 3136 3137 3138 3138 3137 3138 3138 3138 3138 3137 3137 3136 3135 3134 3134 3134 3134 3133 3132 3132 3131 3130 3129 3128 3127 3126 3125 3124 3123 3123 3122 3121 3120 3119 3118 3117 3116 3115 3114 3113 3112 3111 3110 3109 3108
3083 3084 3085 3086 3086 3088 3089 3090 3092 3094 3096 3098 3099 3102 3104 3107 3110 3112 3113 3112 3113 3115 3112 3110 3114 3116 3115 3118 3121 3122 3124 3126 3126 3127 3128 3129 3130 3130 3131 3132 3134 3134 3135 3135 3135 3135 3135 3135 3135 3134 3134 3133 3132 3131 3131 3131 3131 3130 3130 3129 3128 3127 3126 3124 3123 3122 3122 3121 3120 3119 3118 3117 3116 3115 3114 3113 3112 3112 3111 3110 3109 3108 3107 3106 3105 3104
3079 3081 3082 3084 3085 3086 3088 3090 3091 3093 3095 3097 3099 3100 3102 3104 3106 3107 3107 3107 3109 3109 3105 3105 3110 3112 3112 3116 3118 3119 3121 3123 3123 3124 3125 3126 3128 3128 3129 3130 3131 3132 3132 3132 3132 3132 3132 3132 3131 3131 3130 3130 3129 3129 3129 3128 3128 3127 3126 3125 3124 3123 3122 3121 3120 3119 3118 3117 3116 3115 3114 3113 3112 3111 3110 3109 3108 3107 3106 3105 3104 3103 3102 3101 3100 3099
3076 3078 3080 3082 3083 3084 3086 3088 3089 3091 3092 3094 3096 3098 3100 3102 3103 3103 3103 3104 3104 3104 3103 3105 3106 3106 3109 3114 3116 3117 3120 3121 3121 3122 3123 3124 3125 3126 3127 3128 3128 3128 3128 3128 3128 3128 3129 3129 3129 3128 3128 3127 3126 3126 3125 3124 3124 3123 3122 3121 3120 3119 3118 3117 3116 3115 3114 3113 3112 3111 3110 3109 3108 3107 3106 3105 3104 3103 3102 3101 3100 3098 3097 3096 3095 3094
3073 3075 3077 3079 3080 3081 3082 3085 3086 3087 3089 3091 3093 3095 3097 3098 3099 3098 3098 3099 3100 3100 3102 3104 3103 3100 3103 3110 3114 3116 3118 3119 3119 3120 3121 3122 3122 3122 3124 3124 3124 3124 3124 3124 3124 3124 3125 3125 3125 3125 3124 3124 3123 3122 3121 3120 3120 3119 3118 3117 3116 3115 3114 3113 3112 3111 3111 3110 3109 3108 3107 3106 3105 3103 3102 3101 3100 3099 3098 3096 3095 3094 3093 3091 3090 3089
3070 3071 3073 3076 3077 3077 3079 3081 3082 3084 3086 3087 3088 3090 3091 3091 3091 3091 3091 3094 3096 3097 3099 3101 3098 3094 3097 3106 3112 3113 3115 3115 3116 3116 3117 3118 3118 3119 3120 3120 3120 3120 3120 3120 3120 3120 3120 3120 3120 3120 3119 3119 3118 3117 3117 3116 3115 3114 3113 3113 3112 3111 3110 3109 3108 3107 3107 3106 3105 3104 3103 3102 3101 3099 3098 3097 3096 3094 3093 3092 3090 3089 3088 3086 3085 3084
3066 3067 3069 3072 3073 3073 3075 3077 3078 3082 3083 3081 3080 3081 3083 3084 3084 3086 3088 3090 3093 3095 3096 3095 3093 3092 3096 3102 3107 3108 3110 3111 3111 3113 3114 3114 3115 3115 3116 3116 3116 3116 3116 3116 3116 3116 3115 3115 3115 3115 3114 3114 3113 3113 3112 3111 3110 3109 3109 3108 3107 3106 3105 3105 3104 3103 3102 3101 3100 3099 3098 3097 3096 3095 3094 3092 3091 3090 3088 3087 3085 3084 3082 3081 3080 3078
3062 3064 3066 3068 3070 3070 3071 3073 3077 3079 3076 3072 3072 3076 3078 3079 3081 3083 3084 3086 3089 3091 3091 3091 3091 3093 3094 3096 3100 3103 3106 3107 3108 3109 3110 3110 3110 3111 3111 3111 3112 3112 3112 3111 3110 3110 3109 3109 3109 3109 3108 3108 3108 3107 3106 3105 3105 3104 3104 3103 3102 3102 3101 3100 3100 3099 3098 3097 3096 3094 3093 3092 3091 3090 3089 3088 3086 3085 3084 3082 3080 3079 3077 3076 3074 3073
3059 3061 3063 3065 3067 3068 3069 3072 3075 3072 3068 3067 3069 3073 3075 3077 3079 3081 3081 3082 3085 3086 3087 3088 3089 3090 3090 3092 3095 3098 3100 3102 3103 3104 3104 3104 3104 3105 3105 3106 3106 3106 3106 3105 3104 3104 3103 3103 3103 3102 3102 3102 3101 3101 3101 3100 3099 3099 3098 3098 3098 3097 3097 3096 3095 3094 3093 3092 3091 3089 3088 3087 3086 3085 3083 3082 3081 3080 3078 3077 3075 3073 3072 3071 3069 3067
3056 3058 3060 3062 3064 3065 3066 3067 3067 3064 3063 3065 3067 3068 3070 3072 3075 3076 3075 3076 3079 3082 3082 3083 3084 3086 3087 3088 3090 3091 3094 3096 3098 3098 3099 3099 3099 3099 3100 3100 3100 3100 3099 3099 3098 3098 3097 3097 3097 3096 3096 3096 3095 3095 3095 3094 3094 3094 3093 3093 3092 3092 3092 3091 3090 3089 3088 3087 3086 3084 3083 3082 3080 3079 3078 3077 3075 3074 3072 3071 3069 3068 3066 3065 3063 3061
3053 3055 3057 3059 3060 3061 3062 3061 3062 3063 3062 3061 3061 3062 3064 3066 3070 3072 3071 3072 3076 3078 3079 3079 3081 3082 3084 3085 3085 3087 3088 3090 3091 3091 3092 3093 3094 3095 3095 3094 3094 3094 3093 3093 3093 3092 3092 3092 3091 3091 3091 3090 3090 3090 3090 3089 3089 3088 3088 3087 3087 3087 3086 3085 3085 3084 3083 3082 3081 3079 3078 3076 3075 3073 3072 3071 3069 3068 3066 3065 3063 3062 3060 3058 3057 3056
3050 3051 3054 3056 3056 3058 3059 3060 3062 3062 3057 3054 3055 3058 3060 3064 3068 3070 3069 3067 3070 3073 3074 3074 3076 3077 3079 3081 3082 3082 3083 3083 3082 3083 3086 3088 3089 3090 3089 3089 3089 3088 3088 3088 3087 3087 3087 3086 3086 3086 3086 3086 3085 3085 3085 3084 3084 3083 3083 3082 3082 3081 3080 3080 3079 3078 3078 3077 3075 3074 3072 3070 3069 3067 3066 3064 3063 3062 3060 3059 3057 3056 3054 3052 3051 3049
3046 3047 3050 3052 3053 3055 3056 3056 3056 3055 3050 3049 3052 3055 3058 3061 3064 3068 3067 3062 3062 3066 3068 3069 3071 3073 3075 3077 3077 3077 3077 3075 3075 3078 3082 3083 3083 3084 3084 3084 3084 3083 3083 3083 3082 3082 3082 3082 3082 3081 3081 3081 3081 3081 3080 3080 3079 3079 3078 3077 3077 3076 3075 3074 3074 3073 3072 3071 3070 3068 3066 3064 3063 3061 3060 3058 3057 3055 3053 3052 3050 3048 3047 3045 3043 3041
3041 3043 3045 3047 3048 3050 3051 3052 3051 3049 3047 3048 3050 3052 3055 3057 3061 3065 3062 3055 3055 3060 3063 3065 3067 3068 3070 3072 3071 3071 3071 3070 3072 3076 3077 3077 3077 3078 3078 3078 3078 3078 3078 3078 3078 3078 3078 3077 3077 3077 3077 3077 3076 3076 3076 3075 3074 3073 3073 3072 3071 3070 3069 3069 3068 3067 3066 3065 3063 3062 3060 3058 3057 3055 3053 3052 3050 3048 3046 3044 3043 3041 3039 3037 3035 3033
3036 3038 3040 3041 3043 3045 3047 3048 3047 3045 3044 3046 3048 3048 3051 3055 3057 3056 3052 3050 3053 3057 3059 3061 3063 3064 3066 3066 3066 3067 3067 3068 3070 3071 3071 3071 3072 3072 3072 3073 3073 3074 3074 3074 3074 3074 3073 3073 3073 3073 3072 3072 3072 3071 3071 3070 3069 3068 3067 3067 3066 3065 3064 3063 3062 3061 3060 3059 3057 3056 3054 3052 3050 3048 3047 3044 3043 3041 3040 3037 3035 3033 3031 3029 3027 3025
3031 3033 3034 3036 3039 3041 3042 3044 3044 3041 3040 3043 3045 3046 3048 3050 3048 3046 3047 3051 3054 3055 3056 3057 3059 3060 3061 3062 3062 3063 3064 3064 3065 3066 3066 3067 3067 3067 3068 3068 3069 3069 3070 3070 3070 3070 3070 3069 3069 3068 3068 3067 3067 3066 3066 3065 3064 3064 3063 3062 3061 3060 3059 3058 3057 3055 3054 3053 3051 3049 3047 3046 3044 3042 3040 3038 3036 3034 3032 3030 3028 3026 3023 3020 3018 3016
3025 3028 3029 3031 3034 3037 3038 3039 3039 3036 3034 3037 3040 3042 3043 3043 3042 3044 3047 3050 3051 3052 3053 3053 3054 3056 3057 3058 3058 3059 3059 3060 3061 3062 3062 3063 3063 3064 3064 3064 3065 3065 3066 3066 3066 3066 3066 3065 3065 3064 3063 3063 3062 3062 3061 3060 3060 3059 3058 3057 3056 3055 3054 3052 3051 3049 3048 3046 3044 3043 3041 3039 3037 3035 3033 3031 3029 3026 3024 3022 3020 3018 3015 3012 3009 3007
3022 3024 3024 3025 3027 3030 3030 3031 3031 3031 3032 3035 3038 3039 3040 3040 3042 3044 3045 3046 3047 3048 3049 3049 3050 3052 3053 3054 3055 3056 3056 3057 3058 3058 3059 3059 3060 3060 3060 3061 3061 3061 3061 3061 3061 3061 3061 3061 3061 3060 3059 3059 3058 3057 3056 3055 3054 3054 3052 3051 3050 3049 3048 3046 3044 3043 3041 3039 3037 3036 3034 3032 3030 3028 3026 3023 3021 3018 3016 3014 3012 3010 3008 3005 3002 2999
3017 3019 3020 3022 3023 3024 3025 3026 3028 3031 3033 3034 3034 3035 3037 3038 3039 3040 3041 3042 3043 3044 3045 3046 3047 3048 3049 3050 3051 3052 3053 3054 3054 3055 3055 3055 3056 3056 3056 3056 3056 3056 3057 3057 3056 3056 3057 3056 3056 3056 3055 3054 3053 3052 3051 3050 3049 3048 3046 3045 3044 3043 3041 3040 3038 3036 3034 3032 3030 3028 3027 3025 3023 3021 3018 3016 3013 3010 3008 3006 3004 3002 3000 2997 2995 2991
3014 3016 3018 3020 3021 3022 3023 3024 3027 3028 3029 3029 3030 3031 3033 3034 3035 3036 3037 3039 3040 3040 3042 3042 3043 3044 3045 3046 3047 3048 3049 3050 3050 3051 3051 3051 3052 3052 3052 3052 3052 3052 3052 3052 3052 3052 3052 3051 3051 3051 3050 3049 3048 3047 3045 3044 3042 3041 3040 3038 3037 3036 3034 3033 3031 3029 3027 3025 3023 3021 3019 3018 3016 3014 3012 3009 3006 3003 3001 2998 2996 2994 2992 2990 2987 2984
3011 3013 3015 3017 3018 3018 3018 3020 3023 3024 3025 3026 3027 3027 3028 3030 3031 3032 3033 3035 3036 3037 3038 3039 3040 3041 3041 3041 3042 3043 3044 3045 3046 3046 3047 3047 3047 3047 3048 3048 3048 3048 3048 3048 3048 3048 3047 3047 3046 3045 3044 3043 3043 3042 3040 3038 3037 3035 3033 3032 3031 3029 3028 3026 3024 3022 3020 3018 3016 3014 3012 3010 3008 3006 3004 3002 3000 2997 2995 2992 2989 2987 2985 2983 2979 2976
3008 3010 3011 3012 3014 3014 3014 3016 3018 3019 3020 3022 3023 3024 3025 3026 3028 3029 3030 3031 3033 3033 3034 3034 3035 3036 3036 3037 3038 3039 3039 3040 3041 3042 3042 3043 3043 3043 3044 3043 3044 3044 3044 3044 3044 3043 3043 3042 3041 3040 3039 3038 3037 3036 3035 3033 3031 3030 3027 3026 3024 3022 3021 3019 3017 3015 3013 3011 3009 3007 3004 3002 3000 2998 2996 2994 2992 2989 2987 2985 2983 2980 2978 2976 2972 2968
3005 3006 3007 3008 3009 3009 3010 3013 3014 3015 3016 3018 3020 3022 3023 3023 3024 3026 3027 3027 3028 3029 3029 3030 3031 3032 3032 3033 3033 3034 3035 3036 3037 3037 3038 3038 3039 3039 3040 3040 3040 3040 3040 3040 3039 3039 3038 3037 3036 3035 3034 3032 3032 3031 3029 3027 3025 3023 3021 3020 3018 3016 3014 3012 3010 3008 3006 3004 3002 2999 2997 2995 2992 2990 2987 2985 2984 2982 2979 2977 2974 2971 2970 2970 2966 2960
3000 3000 3002 3004 3004 3004 3006 3009 3011 3012 3013 3015 3018 3019 3019 3020 3021 3022 3023 3023 3024 3024 3025 3026 3027 3028 3028 3029 3029 3030 3031 3031 3032 3033 3034 3034 3035 3036 3036 3036 3036 3036 3036 3036 3035 3034 3033 3032 3031 3030 3028 3027 3026 3025 3023 3021 3019 3017 3015 3013 3011 3009 3007 3005 3003 3001 2999 2997 2995 2992 2989 2987 2985 2982 2979 2976 2974 2971 2970 2969 2967 2963 2959 2959 2958 2955
2994 2996 2998 2999 3000 3001 3004 3007 3008 3009 3010 3012 3014 3015 3015 3016 3017 3018 3018 3019 3020 3020 3021 3022 3023 3024 3024 3025 3025 3026 3026 3027 3028 3029 3029 3030 3031 3031 3031 3032 3032 3032 3031 3031 3030 3030 3028 3027 3026 3024 3023 3022 3020 3019 3017 3015 3013 3011 3010 3008 3006 3003 3001 2998 2996 2994 2992 2989 2987 2984 2982 2979 2977 2974 2971 2968 2965 2961 2958 2957 2958 2957 2953 2949 2947 2946